Location: Unspecified
(0.0000°N, 0.0000°E)
Time: 18:29:02
(UTC+00:00)

RS-8 - Pass Details

Date: 15 October 2022
Orbit: 1578 x 1661 km, 83.0° (Epoch: 02 December)

Event Time Altitude Azimuth Distance (km) Brightness Sun altitude
Rises 18:56:02 0° 171° (S) 4,766 10.6 -17.4°
Reaches altitude 10° 18:59:07 10° 165° (SSE) 3,781 10.0 -18.1°
Maximum altitude 19:07:51 50° 92° (E) 1,943 8.1 -20.3°
Drops below altitude 10° 19:16:37 10° 20° (NNE) 3,805 9.8 -22.4°
Sets 19:19:41 0° 15° (NNE) 4,799 10.4 -23.2°
